Home   Weather   Matthews   Past weeks
Flag for USA

Past Weather in Matthews, USA — Yesterday and Last 2 Weeks

Now
62 °F

Partly sunny.


Feels Like: 62 °F
Forecast: 65 / 43 °F
Wind: 7 mph from North

Location: Charlotte / Douglas International Airport

Current Time: Apr 21, 2019 at 2:31:04 pm

Latest Report: Apr 21, 2019 at 1:52 pm


Visibility: 10 mi

Pressure: 30.07 "Hg

Humidity: 46%

Dew Point: 41 °F

Location of MatthewsLocation

Past Weather in Matthews — Graph

°F

Matthews Temperature Yesterday

Maximum temperature yesterday: 57 °F (at 12:52 am)
Minimum temperature yesterday: 48 °F (at 6:52 am)
Average temperature yesterday: 52 °F

High & Low Weather Summary for the Past Weeks

 TemperatureHumidityPressure
High80 °F (Apr 17, 4:52 pm)97% (Apr 7, 7:32 am)30.27 "Hg (Apr 7, 7:32 am)
Low41 °F (Apr 16, 3:52 am)20% (Apr 10, 3:52 pm)29.45 "Hg (Apr 19, 4:52 pm)
Average65 °F73%29.94 "Hg
* Reported Apr 6 12:44 pm — Apr 21 12:52 pm, Matthews. Weather by CustomWeather, © 2019

Note: Actual official high and low records may vary slightly from our data, if they occured in-between our weather recording intervals... More about our weather records

Advertising

Matthews Weather History for the Previous 24 Hours

Scroll right to see more
 ConditionsComfort  
Time TempWeatherWind HumidityBarometerVisibility
12:52 pm
Sun, Apr 21
59 °FPartly sunny.9 mph49%30.07 "Hg10 mi
11:52 am58 °FPartly sunny.10 mph50%30.07 "Hg10 mi
10:52 am58 °FScattered clouds.9 mph50%30.05 "Hg10 mi
9:52 am55 °FScattered clouds.10 mph62%30.04 "Hg10 mi
8:52 am51 °FScattered clouds.3 mph74%30.01 "Hg10 mi
7:52 am45 °FScattered clouds.3 mph93%30.00 "Hg10 mi
6:52 am41 °FFog.3 mph93%29.97 "Hg6 mi
5:52 am42 °FPassing clouds.5 mph96%29.95 "Hg9 mi
4:52 am43 °FPassing clouds.No wind89%29.93 "Hg8 mi
3:52 am43 °FPassing clouds.3 mph93%29.93 "Hg10 mi
2:52 am44 °FPassing clouds.3 mph89%29.90 "Hg10 mi
1:52 am46 °FPassing clouds.6 mph86%29.90 "Hg10 mi
1:21 am46 °FPassing clouds.7 mph89%29.91 "Hg10 mi
12:52 am47 °FPassing clouds.9 mph86%29.90 "Hg10 mi
11:52 pm
Sat, Apr 20
49 °FMostly cloudy.10 mph80%29.89 "Hg10 mi
10:52 pm50 °FOvercast.7 mph80%29.87 "Hg10 mi
9:52 pm50 °FPassing clouds.7 mph80%29.85 "Hg10 mi
8:52 pm49 °FPassing clouds.8 mph84%29.83 "Hg10 mi
7:52 pm51 °FCloudy.8 mph77%29.80 "Hg10 mi
6:52 pm52 °FPartly sunny.13 mph72%29.79 "Hg10 mi
5:52 pm53 °FBroken clouds.14 mph69%29.77 "Hg10 mi
4:52 pm55 °FMostly cloudy.18 mph62%29.74 "Hg10 mi
3:52 pm52 °FBroken clouds.14 mph77%29.74 "Hg10 mi
2:52 pm53 °FCloudy.17 mph69%29.73 "Hg10 mi
Weather by CustomWeather, © 2019

See weather overview